Location: Round Knob
(37.2473°N, 88.7376°W)
Time: 12:31:56
(UTC+00:00)

Cosmos 968 Rocket - Pass Details

Date: 29 October 2020
Orbit: 741 x 770 km, 74.0° (Epoch: 04 December)

Event Time Altitude Azimuth Distance (km) Brightness Sun altitude
Rises 23:18:27 0° 354° (N) 3,230 6.7 -4.4°
Reaches altitude 10° 23:21:15 10° 7° (N) 2,295 5.8 -5.0°
Maximum altitude 23:25:31 25° 63° (ENE) 1,487 4.5 -5.8°
Drops below altitude 10° 23:29:44 10° 118° (ESE) 2,268 5.5 -6.6°
Sets 23:32:27 0° 131° (SE) 3,183 6.3 -7.1°
